Tracking 30743 objects as of 25-Jun-2025
HD Live streaming from Space Station
objects crossing your sky now

FENGYUN 1C DEB

Track FENGYUN 1C DEB now!
10-day predictions


NORAD ID: 32178
Int'l Code: 1999-025CTY
Perigee: 755.9 km
Apogee: 896.1 km
Inclination: 100.3 °
Period: 101.3 minutes
Semi major axis: 7196 km
RCS: 0.0128 m2 (small)
Launch date: May 10, 1999
Source: People's Republic of China (PRC)
Launch site: Taiyaun Space Center, China (TSC)

Note: This is SATELLITE DEBRIS
Your satellite tracking list
Your tracking list is empty




NASA's NSSDC Master Catalog

Two Line Element Set (TLE):
1 32178U 99025CTY 25174.18552812  .00001722  00000-0  76808-3 0  9991
2 32178 100.2906 146.8113 0097443  76.9710 284.2319 14.21927108615503
Source of the keplerian elements: AFSPC